Regional Weather Roundup
Issued by NWS

Home | Current Version | Previous Version | Graphics & Text | Print | Product List | Glossary On
Versions: 1 2 3 4 5 6 7 8 9 10 11 12 13 14 15 16 17 18 19 20 21 22 23 24 25 26 27 28 29 30 31 32 33 34 35 36 37 38 39 40 41 42 43 44 45 46 47 48 49 50
000
ASUS45 KCYS 222110
RWRWY

WYOMING REGIONAL WEATHER ROUNDUP
NATIONAL WEATHER SERVICE CHEYENNE WY
300 PM MDT FRI MAY 22 2015

NOTE:  "FAIR" INDICATES FEW OR NO CLOUDS BELOW 12,000 FEET
WITH NO SIGNIFICANT WEATHER AND/OR OBSTRUCTIONS TO VISIBILITY.

WYZ001-222200-
YELLOWSTONE NATIONAL PARK

CITY           SKY/WX    TMP DP  RH WIND       PRES   REMARKS
LK YELLOWSTONE   N/A     50  37  61 SE7       30.01F
W YELLOWSTONE  NOT AVBL

$$
WYZ002>013-054>058-071-098>099-222200-
NORTHERN WYOMING

CITY           SKY/WX    TMP DP  RH WIND       PRES   REMARKS
JACKSON        MOSUNNY   61  36  39 CALM      29.91F
CODY           CLOUDY    54  46  76 W9        29.95R
GREYBULL       PTSUNNY   69  40  34 S5        29.86F
WORLAND        FAIR      65  44  46 S7        29.89F
SHERIDAN       FAIR      64  45  49 SE21G31   29.93S
BUFFALO        CLOUDY    55  42  61 SE17      29.99F
GILLETTE       CLOUDY    53  43  68 SE22G29   30.02S
HULETT         CLOUDY    59  41  51 S15       30.05S
NEWCASTLE      MOCLDY    55  37  50 SE17G26   30.06F

$$
WYZ014>020-022>026-101>103-222200-
CENTRAL WYOMING

CITY           SKY/WX    TMP DP  RH WIND       PRES   REMARKS
BIG PINEY      LGT RAIN  46  41  82 SE16G26   29.98R
PINEDALE       LGT RAIN  45  41  87 S10       29.98F
DUBOIS         FAIR      55  36  47 SE7G17    29.96S
LANDER         PTSUNNY   58  44  60 NE7       29.92F
RIVERTON       CLOUDY    55  46  71 NE7       29.95F
CASPER         LGT RAIN  50  47  89 E14       29.96F
DOUGLAS        LGT RAIN  51  47  86 SE17      30.01F

$$
WYZ021-027>030-104>119-222200-
SOUTHERN WYOMING

CITY           SKY/WX    TMP DP  RH WIND       PRES   REMARKS
EVANSTON       CLOUDY    51  38  60 NW14      29.96S
KEMMERER       MOCLDY    48  36  61 NW16G22   29.98R
FORT BRIDGER   CLOUDY    52  39  62 NW9       29.98S THUNDER
ROCK SPRINGS   PTSUNNY   50  41  71 W9        29.97F
DIXON          FAIR      54  41  61 CALM      30.00F
RAWLINS        CLOUDY    49  42  77 SW12      29.98F
SARATOGA       CLOUDY    50  39  66 W12       30.00F
LARAMIE        LGT RAIN  45  41  86 S8        30.00F
CHEYENNE       NOT AVBL
TORRINGTON     CLOUDY    49  45  86 SE20      30.03F
PINE BLUFFS    CLOUDY    50  45  81 SE10      30.03F

$$


USA.gov is the U.S. government's official web portal to all federal, state and local government web resources and services.